Wind_Speed
9 10 10 10 10 11 11 11 11 11 11 11 11 11 11 11 11 10 11 11 11 11 11 11 11 11 10 11 11 10 10 10 10 10 11 11 11 12 12 12 13 13 13
10 11 11 11 11 11 11 11 11 11 11 11 11 11 12 12 11 11 12 12 12 12 12 12 11 11 11 11 11 10 10 11 11 12 12 12 12 13 13 13 13 13 13
10 11 11 11 11 12 12 12 12 12 12 12 12 12 13 12 12 12 12 12 12 12 12 13 13 12 12 11 12 12 12 12 12 13 13 13 13 13 14 14 14 14 13
11 11 11 12 12 12 12 13 13 13 14 14 14 14 14 13 13 13 13 13 13 13 13 13 14 14 14 13 13 13 14 14 14 15 15 15 15 14 14 14 14 14 14
12 13 13 13 13 13 14 14 14 14 15 15 16 15 15 15 15 15 15 14 14 14 14 14 14 14 14 14 14 15 15 15 15 15 15 16 16 16 16 15 15 15 15
14 14 14 14 15 15 15 16 16 16 16 17 18 17 17 17 17 17 17 16 16 16 16 16 16 16 16 16 16 16 16 16 17 17 17 17 17 17 17 16 16 16 16
14 15 15 16 16 16 16 16 17 18 18 19 19 19 19 19 19 19 19 19 19 18 18 18 18 18 18 18 17 17 18 18 18 18 18 18 18 19 18 18 17 17 17
15 16 16 17 17 17 17 17 18 19 20 20 21 21 21 20 20 20 20 21 21 20 20 20 20 19 19 19 19 19 19 19 19 19 19 19 20 20 19 19 19 18 18
16 17 18 18 18 19 19 19 20 20 21 21 21 22 22 22 22 22 22 22 22 22 22 22 22 22 21 22 22 21 21 21 21 21 22 21 21 21 21 21 21 20 20
18 18 19 20 20 20 20 20 21 21 22 22 22 23 23 23 23 23 23 24 24 24 24 25 25 24 24 23 23 23 23 23 23 23 23 23 23 23 23 22 22 22 22
19 19 19 20 20 21 22 22 22 23 23 23 24 24 24 24 24 24 24 25 25 26 26 26 26 26 25 25 25 25 24 24 24 25 25 25 25 26 25 25 24 24 24
20 21 21 20 21 22 23 23 24 23 24 24 24 25 25 25 25 26 26 26 26 27 27 27 27 27 27 27 26 26 26 27 27 27 27 27 27 27 27 27 27 27 27
21 22 22 22 22 23 24 24 24 24 24 25 25 25 25 26 27 27 28 28 28 28 28 28 29 29 29 29 28 28 28 29 28 29 29 29 29 29 29 29 28 28 28
21 21 22 23 23 24 24 24 24 24 25 26 27 27 27 28 28 29 29 29 29 29 30 30 30 29 30 30 31 30 30 30 30 30 30 30 29 29 29 29 29 29 29
22 22 23 23 24 25 25 24 25 25 25 26 27 28 28 28 29 29 29 30 30 30 31 31 31 31 31 32 32 32 32 32 32 32 31 31 30 30 30 29 30 30 29
23 24 24 24 25 26 26 26 26 26 27 28 28 28 28 28 29 30 30 31 32 32 32 32 32 32 33 33 33 34 34 34 33 33 32 33 32 31 31 31 31 30 30
24 25 25 26 26 27 27 28 27 28 29 29 30 30 30 30 30 31 32 33 33 33 33 33 33 33 34 34 34 35 36 35 34 34 33 33 33 32 32 32 32 32 31
26 26 26 27 27 27 28 29 29 30 30 30 31 31 31 32 32 33 33 34 34 34 33 33 33 33 34 35 35 34 35 35 34 34 33 33 34 33 33 33 33 33 32
27 27 27 27 28 28 29 29 30 30 31 31 32 32 32 33 34 34 34 34 33 33 32 33 34 34 35 35 35 36 36 35 35 34 34 33 33 33 33 34 34 33 33
28 28 28 29 29 30 30 31 31 31 32 33 33 33 34 34 35 35 34 34 34 34 34 34 34 35 35 35 36 36 36 36 35 35 35 34 34 34 34 35 35 35 34
30 31 30 30 31 31 32 32 32 33 33 33 33 34 35 35 35 35 36 36 36 36 36 35 35 35 36 37 37 37 36 36 36 35 35 34 34 34 35 36 36 35 35
31 31 31 31 32 32 33 33 33 34 34 34 35 35 35 35 36 36 36 36 36 36 36 36 36 36 37 37 37 37 37 36 36 35 35 34 35 35 36 36 36 36 36
32 32 32 32 32 33 33 34 34 34 34 35 36 36 37 37 37 38 38 37 37 37 37 37 37 37 37 38 38 38 37 36 36 35 35 35 35 36 36 37 37 37 37
32 32 32 32 33 34 34 34 35 35 35 36 37 38 38 38 38 39 39 39 38 39 39 39 38 38 38 38 38 37 37 36 36 36 36 36 35 36 37 37 37 36 37
32 32 32 33 34 35 36 36 36 36 37 37 38 39 40 40 39 39 39 39 38 39 39 39 39 38 38 38 37 37 37 37 37 37 37 36 36 37 37 37 37 36 36
33 33 34 34 35 35 35 35 36 37 37 38 38 39 39 40 40 39 39 38 38 38 38 38 38 38 38 38 37 37 37 36 36 37 37 36 35 35 36 36 36 36 35
Wind_Direction
280 282 283 283 284 285 288 288 289 290 290 293 293 293 295 295 295 297 299 301 298 295 295 292 290 290 294 297 297 296 293 291 293 293 292 292 292 292 293 293 292 289 284
278 279 281 280 281 282 285 287 286 286 286 289 289 286 287 288 289 289 292 295 296 296 297 293 289 289 291 293 294 293 292 292 293 292 291 291 290 290 290 290 290 288 284
279 281 282 280 280 281 282 284 283 281 279 279 281 281 283 287 286 286 288 290 291 292 295 294 290 289 289 290 291 291 290 291 291 290 290 288 287 287 288 289 288 286 283
286 286 287 285 283 284 282 283 282 279 276 275 277 281 281 284 285 282 284 288 290 291 291 292 292 291 289 287 288 290 289 291 292 291 289 287 285 284 285 284 283 283 282
290 290 288 288 285 284 284 283 282 280 278 278 277 279 279 281 281 282 283 285 288 289 289 289 289 290 290 289 289 290 289 290 291 291 289 286 285 284 283 281 278 279 280
293 293 289 288 286 284 282 281 282 281 279 280 280 281 279 281 281 282 283 283 285 287 287 287 286 286 286 286 287 288 289 290 290 290 290 287 285 284 282 279 277 277 278
293 292 290 287 284 283 282 282 282 281 281 282 281 282 281 281 282 281 282 282 283 284 284 284 285 284 284 284 284 286 287 289 290 288 287 287 285 284 281 280 277 275 276
292 290 288 287 284 282 282 281 281 280 280 281 280 281 281 281 281 282 282 281 281 280 279 280 281 282 282 283 284 284 285 286 287 287 287 286 285 283 280 279 277 274 274
293 290 287 285 284 283 284 284 283 281 280 281 281 280 281 281 281 281 281 280 279 278 277 278 279 281 281 282 282 283 284 285 286 286 286 286 284 282 279 277 277 277 275
289 287 285 283 283 284 284 284 283 282 282 282 281 281 280 280 281 281 280 279 278 278 278 277 277 278 279 279 281 281 282 284 285 285 285 284 282 280 279 278 278 277 276
287 284 282 282 282 282 283 283 283 283 282 281 280 280 281 280 280 280 280 280 279 278 279 278 276 277 278 279 279 280 280 282 283 285 284 282 281 279 277 277 277 277 275
287 284 282 280 282 284 284 284 283 283 281 281 281 280 280 280 280 281 281 282 281 280 279 277 277 277 276 277 277 278 279 281 282 283 283 281 280 279 278 277 277 277 276
286 285 282 280 282 284 283 284 282 282 281 281 282 283 280 279 281 283 283 283 283 282 281 279 278 277 276 275 276 277 279 281 282 282 282 280 279 279 279 277 278 277 276
284 284 282 282 283 284 283 281 280 281 281 282 282 283 282 282 282 282 283 282 282 281 280 280 279 277 276 275 276 277 278 280 280 282 282 280 279 279 278 276 276 276 276
283 284 283 282 284 284 283 281 281 281 282 282 282 283 284 284 283 283 283 283 282 281 280 279 278 278 277 276 276 277 277 279 280 281 280 279 278 277 276 275 275 275 275
284 284 284 284 285 285 283 282 283 282 283 283 283 284 283 283 282 283 284 285 284 282 280 278 278 278 278 277 277 277 278 279 279 280 279 278 278 276 274 275 275 274 274
285 285 286 285 285 284 283 283 283 283 283 283 283 284 283 283 282 282 283 284 284 284 282 278 278 278 278 278 279 278 278 279 279 277 276 276 276 275 274 274 274 274 273
283 284 285 286 286 286 285 284 283 283 283 283 284 284 283 284 284 285 286 284 283 282 281 280 279 278 279 279 279 278 278 278 278 277 276 275 274 274 274 274 274 274 273
282 283 284 286 285 285 285 285 285 285 284 284 285 284 284 284 284 285 287 286 284 284 283 282 281 280 280 280 280 278 278 277 276 276 275 275 274 274 274 274 274 273 271
282 282 284 286 287 286 286 285 286 286 286 286 286 285 285 285 284 285 285 285 285 284 284 283 282 282 282 282 281 280 279 278 276 276 275 273 274 273 273 273 273 272 271
283 283 283 285 286 287 286 287 286 286 287 287 287 287 286 285 284 285 285 285 284 284 284 284 283 283 284 283 283 282 281 280 278 277 275 273 272 272 273 273 272 272 270
285 284 284 285 285 285 285 286 286 285 285 286 287 288 287 286 284 284 284 284 284 284 284 284 284 283 283 283 283 283 282 280 278 277 276 274 273 272 272 272 271 270 269
285 284 284 283 285 285 285 285 286 287 286 286 287 289 288 286 285 285 285 284 284 283 285 284 284 284 283 282 282 282 281 279 278 276 275 274 273 273 272 272 271 269 268
285 284 284 284 285 286 287 287 287 287 288 288 288 288 288 288 286 286 285 284 284 284 285 285 284 284 284 283 281 281 280 278 277 275 274 274 274 274 273 272 271 269 268
284 284 285 286 286 286 287 287 287 288 288 289 289 290 290 290 288 287 287 286 285 285 285 285 285 284 284 283 282 280 279 278 277 275 274 274 275 274 274 273 272 270 268
285 285 286 287 287 287 288 288 288 288 289 289 290 290 290 289 288 288 287 286 286 285 285 285 285 284 283 283 282 281 280 279 278 276 274 274 274 273 273 272 271 269 268
Height
5857 5857 5857 5856 5856 5855 5854 5854 5853 5853 5852 5851 5850 5849 5849 5848 5847 5846 5845 5844 5843 5842 5842 5841 5840 5839 5838 5837 5837 5836 5835 5834 5833 5833 5832 5831 5830 5829 5828 5827 5826 5826 5825
5854 5854 5854 5853 5852 5852 5851 5850 5850 5849 5849 5848 5847 5846 5845 5845 5844 5843 5842 5841 5841 5840 5839 5838 5838 5837 5836 5835 5834 5833 5832 5831 5831 5830 5829 5828 5827 5826 5825 5824 5823 5822 5821
5851 5850 5850 5849 5849 5848 5848 5847 5846 5846 5845 5844 5844 5843 5842 5841 5841 5840 5839 5838 5837 5837 5836 5835 5835 5834 5833 5832 5831 5830 5829 5828 5827 5826 5826 5825 5824 5823 5822 5820 5819 5818 5818
5847 5847 5846 5845 5845 5844 5844 5843 5843 5842 5841 5840 5840 5839 5838 5838 5837 5837 5836 5835 5834 5833 5833 5832 5831 5830 5830 5829 5828 5827 5826 5825 5824 5823 5822 5821 5820 5819 5818 5817 5815 5814 5814
5844 5843 5842 5841 5841 5840 5840 5839 5839 5838 5837 5836 5836 5835 5834 5834 5833 5832 5832 5831 5830 5829 5829 5828 5827 5826 5826 5825 5824 5823 5822 5821 5820 5818 5817 5816 5815 5814 5813 5812 5812 5810 5809
5840 5839 5838 5837 5837 5836 5836 5835 5834 5834 5833 5832 5831 5831 5830 5829 5829 5828 5827 5827 5826 5825 5824 5823 5823 5822 5821 5820 5820 5818 5817 5816 5815 5814 5812 5811 5810 5809 5808 5807 5806 5806 5805
5836 5835 5834 5833 5832 5832 5831 5830 5830 5829 5828 5827 5827 5826 5825 5824 5824 5823 5822 5822 5821 5820 5820 5819 5818 5817 5816 5815 5814 5813 5812 5811 5810 5809 5807 5806 5804 5803 5802 5802 5801 5800 5800
5832 5831 5829 5828 5827 5827 5826 5825 5825 5824 5823 5822 5821 5820 5820 5819 5818 5817 5816 5816 5815 5815 5814 5813 5812 5811 5811 5810 5809 5808 5807 5806 5804 5803 5801 5800 5798 5797 5796 5796 5795 5795 5794
5827 5826 5825 5823 5822 5822 5821 5820 5819 5818 5817 5816 5815 5814 5814 5812 5812 5811 5810 5810 5809 5808 5807 5806 5806 5805 5804 5804 5803 5802 5801 5799 5798 5796 5795 5793 5792 5790 5790 5789 5788 5788 5788
5822 5821 5820 5819 5817 5816 5815 5814 5813 5812 5811 5810 5809 5808 5807 5806 5805 5805 5804 5803 5802 5801 5800 5799 5799 5798 5797 5796 5796 5795 5794 5792 5791 5790 5788 5787 5785 5784 5783 5782 5782 5781 5781
5817 5815 5814 5813 5812 5811 5810 5808 5807 5806 5805 5804 5803 5802 5800 5800 5799 5798 5797 5796 5795 5794 5793 5792 5791 5790 5790 5789 5788 5787 5786 5785 5784 5782 5781 5779 5778 5777 5776 5775 5774 5774 5773
5810 5809 5808 5807 5806 5805 5803 5802 5801 5799 5798 5797 5796 5795 5794 5793 5792 5791 5790 5789 5787 5786 5785 5784 5783 5782 5782 5781 5780 5779 5778 5777 5776 5774 5772 5771 5769 5768 5768 5767 5766 5766 5765
5804 5803 5802 5801 5799 5798 5797 5795 5794 5792 5791 5790 5789 5788 5787 5786 5784 5783 5782 5781 5780 5778 5777 5776 5775 5774 5773 5772 5771 5771 5770 5768 5767 5765 5764 5762 5761 5759 5759 5758 5757 5757 5756
5798 5796 5795 5794 5793 5791 5789 5788 5787 5786 5784 5783 5782 5781 5779 5778 5777 5775 5774 5772 5771 5770 5769 5767 5766 5765 5764 5763 5763 5762 5761 5759 5758 5756 5755 5753 5751 5750 5750 5749 5748 5748 5747
5791 5790 5788 5787 5786 5784 5782 5781 5780 5778 5777 5776 5775 5773 5772 5770 5769 5767 5765 5764 5762 5761 5759 5758 5757 5755 5754 5754 5753 5752 5751 5750 5748 5746 5745 5744 5742 5741 5741 5740 5739 5739 5738
5784 5783 5781 5780 5778 5777 5775 5774 5772 5771 5770 5768 5767 5765 5764 5762 5760 5759 5757 5755 5753 5751 5750 5748 5747 5746 5744 5743 5742 5742 5741 5739 5738 5736 5735 5734 5733 5732 5731 5730 5730 5729 5729
5777 5776 5774 5773 5771 5769 5768 5767 5765 5763 5762 5760 5758 5756 5755 5753 5751 5750 5748 5746 5744 5742 5740 5738 5737 5736 5734 5733 5732 5730 5730 5728 5727 5725 5724 5723 5722 5722 5721 5721 5720 5720 5719
5770 5768 5767 5765 5763 5761 5760 5758 5757 5755 5753 5751 5749 5747 5746 5744 5742 5740 5737 5735 5733 5732 5730 5728 5726 5725 5724 5722 5721 5719 5718 5717 5716 5714 5713 5713 5712 5712 5711 5711 5710 5710 5710
5762 5760 5759 5757 5755 5753 5752 5750 5748 5746 5744 5742 5740 5738 5736 5734 5732 5729 5727 5725 5723 5721 5719 5717 5716 5714 5713 5711 5709 5708 5707 5706 5705 5704 5703 5702 5701 5701 5700 5700 5700 5699 5699
5754 5752 5751 5749 5747 5745 5743 5741 5739 5737 5735 5733 5731 5728 5726 5724 5721 5719 5717 5714 5712 5710 5709 5707 5705 5703 5702 5700 5698 5696 5695 5695 5694 5693 5692 5691 5690 5690 5689 5689 5689 5688 5688
5746 5744 5742 5740 5738 5736 5734 5732 5730 5728 5725 5723 5721 5718 5716 5713 5711 5709 5707 5704 5702 5700 5698 5697 5695 5693 5691 5689 5687 5685 5684 5683 5682 5681 5681 5680 5679 5678 5678 5677 5677 5677 5677
5737 5735 5733 5731 5729 5727 5725 5723 5720 5718 5716 5713 5711 5708 5705 5703 5700 5698 5696 5694 5691 5690 5688 5686 5684 5681 5679 5677 5675 5674 5672 5671 5670 5669 5669 5668 5667 5666 5666 5665 5665 5665 5665
5728 5725 5723 5721 5719 5717 5715 5713 5710 5708 5706 5703 5701 5698 5695 5692 5689 5687 5685 5683 5681 5679 5677 5675 5673 5670 5668 5665 5664 5662 5660 5659 5658 5657 5657 5656 5655 5655 5654 5654 5653 5653 5653
5718 5716 5714 5711 5709 5707 5705 5702 5700 5698 5695 5693 5690 5687 5684 5681 5678 5675 5673 5671 5669 5667 5665 5663 5661 5659 5656 5654 5652 5650 5648 5647 5646 5645 5645 5644 5643 5643 5642 5642 5641 5641 5641
5709 5706 5704 5702 5700 5697 5694 5692 5690 5687 5685 5682 5679 5676 5672 5669 5666 5664 5661 5658 5656 5654 5652 5650 5648 5646 5644 5642 5640 5638 5637 5635 5634 5633 5633 5632 5632 5631 5630 5630 5629 5629 5629
5699 5697 5694 5692 5690 5687 5684 5682 5679 5676 5673 5671 5668 5664 5661 5658 5654 5652 5649 5646 5644 5642 5639 5637 5635 5633 5631 5629 5628 5626 5624 5623 5622 5621 5621 5620 5620 5619 5618 5618 5617 5617 5617